Weather History for Puyallup, WA

Change the Weather History Date:

Saturday, June 15, 2013

  Actual Average (KTCM) Record (KTCM)
Temperature  
Mean Temperature 58 °F -  
Max Temperature 75 °F 67 °F 86 °F (1963)
Min Temperature 41 °F 47 °F 39 °F (1959)
Degree Days  
Heating Degree Days 7    
Growing Degree Days 8 (Base 50)    
Moisture  
Dew Point 50 °F    
Average Humidity 74    
Maximum Humidity 100    
Minimum Humidity 38    
Precipitation  
Precipitation 0.00 in - - ()
Sea Level Pressure  
Sea Level Pressure 29.98 in    
Wind  
Wind Speed 0 mph (North)    
Max Wind Speed 5 mph    
Max Gust Speed -    
Visibility 9 miles    
Events Fog    
Averages and records for this station are not official NWS values.
T = Trace of Precipitation, MM = Missing Value Source: NWS Daily Summary

Daily Weather History Graph

Daily Weather History Graph

Search for Another Location

Airport:

Trip Planner

Search our weather history database for the weather conditions in past years. The results will help you decide how hot, cold, wet, or windy it might be!

Date:

Astronomy

Jun. 15, 2013 Rise Set
Actual Time 5:13 AM PDT 9:06 PM PDT
Civil Twilight 4:33 AM PDT 9:46 PM PDT
Nautical Twilight 3:38 AM PDT 10:41 PM PDT
Astronomical Twilight 2:16 AM PDT 12:04 AM PDT
Moon 12:17 PM PDT (6/15) 12:22 AM PDT (6/15)
Length of Visible Light 17h 13m
Length of Day
15h 53m
Waxing Crescent, 40% of the Moon is Illuminated
Jun 15
Waxing Crescent
Jun 16
First Quarter
Jun 23
Full
Jun 29
Last Quarter
Jul 8
New

Hourly Weather History & Observations

Time (PDT) Temp. Dew Point Humidity Pressure Visibility Wind Dir Wind Speed Gust Speed Precip Events Conditions
12:15 AM 48.2 °F 48.2 °F 100% 30.06 in 10.0 mi Calm Calm - N/A   Partly Cloudy
12:35 AM 46.4 °F 46.4 °F 100% 30.05 in 10.0 mi Calm Calm - N/A   Partly Cloudy
12:55 AM 46.4 °F 46.4 °F 100% 30.04 in 10.0 mi Calm Calm - N/A   Partly Cloudy
1:15 AM 46.4 °F 46.4 °F 100% 30.04 in 10.0 mi Calm Calm - N/A   Partly Cloudy
1:35 AM 46.4 °F 46.4 °F 100% 30.03 in 9.0 mi Calm Calm - N/A   Clear
1:55 AM 46.4 °F 46.4 °F 100% 30.03 in 10.0 mi Calm Calm - N/A   Partly Cloudy
2:15 AM 44.6 °F 44.6 °F 100% 30.03 in 10.0 mi Calm Calm - N/A   Partly Cloudy
2:35 AM 44.6 °F 44.6 °F 100% 30.02 in 10.0 mi Calm Calm - N/A   Scattered Clouds
2:55 AM 44.6 °F 44.6 °F 100% 30.02 in 10.0 mi Calm Calm - N/A   Clear
3:15 AM 44.6 °F 44.6 °F 100% 30.02 in 10.0 mi Calm Calm - N/A   Partly Cloudy
3:35 AM 44.6 °F 44.6 °F 100% 30.01 in 10.0 mi Calm Calm - N/A   Scattered Clouds
3:55 AM 42.8 °F 42.8 °F 100% 30.01 in 8.0 mi Calm Calm - N/A   Partly Cloudy
4:15 AM 42.8 °F 42.8 °F 100% 30.00 in 5.0 mi Calm Calm - N/A   Partly Cloudy
4:35 AM 42.8 °F 42.8 °F 100% 29.99 in 10.0 mi Calm Calm - N/A   Scattered Clouds
4:55 AM 41.0 °F 41.0 °F 100% 30.00 in 8.0 mi Calm Calm - N/A   Partly Cloudy
5:15 AM 41.0 °F 41.0 °F 100% 30.00 in 10.0 mi Calm Calm - N/A   Mostly Cloudy
5:35 AM 44.6 °F 44.6 °F 100% 29.99 in 10.0 mi Calm Calm - N/A   Overcast
5:55 AM 44.6 °F 44.6 °F 100% 29.99 in 4.0 mi Calm Calm - N/A   Overcast
6:15 AM 46.4 °F 46.4 °F 100% 29.99 in 0.2 mi Calm Calm - N/A Fog Fog
6:35 AM 46.4 °F 46.4 °F 100% 29.99 in 0.2 mi Calm Calm - N/A Fog Fog
6:55 AM 48.2 °F 48.2 °F 100% 29.99 in 0.2 mi Calm Calm - N/A Fog Fog
7:15 AM 48.2 °F 48.2 °F 100% 29.99 in 0.2 mi Calm Calm - N/A Fog Fog
7:35 AM 50.0 °F 50.0 °F 100% 29.99 in 0.5 mi Calm Calm - N/A Fog Fog
7:55 AM 51.8 °F 51.8 °F 100% 29.99 in 5.0 mi Calm Calm - N/A   Mostly Cloudy
8:15 AM 53.6 °F 53.6 °F 100% 29.98 in 10.0 mi Calm Calm - N/A   Partly Cloudy
8:35 AM 55.4 °F 51.8 °F 88% 29.98 in 10.0 mi Calm Calm - N/A   Scattered Clouds
8:55 AM 57.2 °F 51.8 °F 82% 29.99 in 10.0 mi Calm Calm - N/A   Partly Cloudy
9:15 AM 59.0 °F 51.8 °F 77% 29.98 in 10.0 mi Calm Calm - N/A   Partly Cloudy
9:35 AM 62.6 °F 51.8 °F 68% 29.98 in 10.0 mi Calm Calm - N/A   Partly Cloudy
9:55 AM 62.6 °F 50.0 °F 63% 29.98 in 10.0 mi Calm Calm - N/A   Partly Cloudy
10:15 AM 62.6 °F 50.0 °F 63% 29.98 in 10.0 mi Calm Calm - N/A   Partly Cloudy
10:35 AM 64.4 °F 50.0 °F 59% 29.97 in 10.0 mi Calm Calm - N/A   Partly Cloudy
10:55 AM 64.4 °F 50.0 °F 59% 29.97 in 10.0 mi Calm Calm - N/A   Scattered Clouds
11:15 AM 66.2 °F 51.8 °F 60% 29.97 in 10.0 mi Calm Calm - N/A   Scattered Clouds
11:35 AM 66.2 °F 51.8 °F 60% 29.97 in 10.0 mi Calm Calm - N/A   Partly Cloudy
11:55 AM 68.0 °F 51.8 °F 56% 29.96 in 10.0 mi Calm Calm - N/A   Scattered Clouds
12:15 PM 68.0 °F 53.6 °F 60% 29.96 in 10.0 mi North 4.6 mph - N/A   Mostly Cloudy
12:35 PM 69.8 °F 53.6 °F 56% 29.96 in 10.0 mi Calm Calm - N/A   Scattered Clouds
12:55 PM 69.8 °F 53.6 °F 56% 29.96 in 10.0 mi Calm Calm - N/A   Scattered Clouds
1:15 PM 71.6 °F 53.6 °F 53% 29.96 in 10.0 mi Calm Calm - N/A   Mostly Cloudy
1:35 PM 71.6 °F 53.6 °F 53% 29.96 in 10.0 mi Calm Calm - N/A   Partly Cloudy
1:55 PM 71.6 °F 53.6 °F 53% 29.95 in 10.0 mi Calm Calm - N/A   Partly Cloudy
2:15 PM 73.4 °F 53.6 °F 50% 29.95 in 10.0 mi Calm Calm - N/A   Partly Cloudy
2:35 PM 73.4 °F 53.6 °F 50% 29.95 in 10.0 mi Calm Calm - N/A   Scattered Clouds
2:55 PM 73.4 °F 53.6 °F 50% 29.95 in 10.0 mi Calm Calm - N/A   Scattered Clouds
3:15 PM 75.2 °F 53.6 °F 47% 29.95 in 10.0 mi Calm Calm - N/A   Scattered Clouds
3:35 PM 73.4 °F 51.8 °F 47% 29.95 in 10.0 mi Calm Calm - N/A   Scattered Clouds
3:55 PM 75.2 °F 50.0 °F 41% 29.95 in 10.0 mi Calm Calm - N/A   Partly Cloudy
4:15 PM 75.2 °F 48.2 °F 38% 29.95 in 10.0 mi Calm Calm - N/A   Partly Cloudy
4:35 PM 75.2 °F 48.2 °F 38% 29.95 in 10.0 mi Calm Calm - N/A   Clear
4:55 PM 75.2 °F 48.2 °F 38% 29.95 in 10.0 mi Calm Calm - N/A   Partly Cloudy
5:15 PM 75.2 °F 48.2 °F 38% 29.95 in 10.0 mi Calm Calm - N/A   Partly Cloudy
5:35 PM 75.2 °F 48.2 °F 38% 29.95 in 10.0 mi Calm Calm - N/A   Partly Cloudy
5:55 PM 75.2 °F 48.2 °F 38% 29.95 in 10.0 mi Calm Calm - N/A   Scattered Clouds
6:15 PM 75.2 °F 48.2 °F 38% 29.95 in 10.0 mi Calm Calm - N/A   Mostly Cloudy
6:35 PM 75.2 °F 51.8 °F 44% 29.95 in 10.0 mi Calm Calm - N/A   Mostly Cloudy
6:55 PM 71.6 °F 53.6 °F 53% 29.95 in 10.0 mi Calm Calm - N/A   Mostly Cloudy
7:15 PM 71.6 °F 53.6 °F 53% 29.95 in 10.0 mi Calm Calm - N/A   Partly Cloudy
7:35 PM 71.6 °F 55.4 °F 57% 29.95 in 10.0 mi Calm Calm - N/A   Partly Cloudy
7:55 PM 71.6 °F 55.4 °F 57% 29.96 in 10.0 mi Calm Calm - N/A   Partly Cloudy
8:15 PM 68.0 °F 53.6 °F 60% 29.96 in 10.0 mi Calm Calm - N/A   Partly Cloudy
8:35 PM 66.2 °F 55.4 °F 68% 29.96 in 10.0 mi Calm Calm - N/A   Clear
8:55 PM 64.4 °F 55.4 °F 73% 29.97 in 10.0 mi Calm Calm - N/A   Scattered Clouds
9:15 PM 62.6 °F 55.4 °F 77% 29.97 in 10.0 mi Calm Calm - N/A   Scattered Clouds
9:35 PM 62.6 °F 55.4 °F 77% 29.98 in 10.0 mi Calm Calm - N/A   Partly Cloudy
9:55 PM 59.0 °F 53.6 °F 82% 29.98 in 10.0 mi Calm Calm - N/A   Partly Cloudy
10:15 PM 59.0 °F 55.4 °F 88% 30.00 in 10.0 mi Calm Calm - N/A   Scattered Clouds
10:35 PM 55.4 °F 53.6 °F 94% 30.01 in 10.0 mi Calm Calm - N/A   Scattered Clouds
10:55 PM 57.2 °F 53.6 °F 88% 30.01 in 10.0 mi Calm Calm - N/A   Scattered Clouds
11:15 PM 55.4 °F 53.6 °F 94% 30.02 in 10.0 mi Calm Calm - N/A   Scattered Clouds
11:35 PM 55.4 °F 53.6 °F 94% 30.02 in 10.0 mi Calm Calm - N/A   Scattered Clouds
11:55 PM 57.2 °F 51.8 °F 82% 30.03 in 10.0 mi Calm Calm - N/A   Partly Cloudy